This demonstration page uses our WeatherBlox Daily Observations layout. Learn more.

38.89511, -77.03637

Hourly Observations for October 22, 2015

Temp ( °F °C ) Dew Point ( °F °C ) Humidity (%) Winds ( mph kmh ) Pressure ( in mb ) Visibility ( mi km ) Precip ( " mm )
12:52 am 00:52 Clear 55 12.8 49 9.4 80 80 SSW 5 7 30.26 1025 10 16.0934 0 0
1:52 am 01:52 Clear 53 11.7 49 9.4 86 86 SW 5 7 30.26 1025 10 16.0934 0 0
2:52 am 02:52 Clear 53 11.7 50 10 89 89 S 6 9 30.24 1024 10 16.0934 0 0
3:52 am 03:52 Clear 53 11.7 49 9.4 86 86 SW 3 6 30.23 1024 10 16.0934 0 0
4:52 am 04:52 Clear 53 11.7 48 8.9 83 83 SW 3 6 30.23 1024 10 16.0934 0 0
5:52 am 05:52 Clear 51 10.6 49 9.4 92 92 SSW 3 6 30.24 1024 10 16.0934 0 0
6:52 am 06:52 Partly Cloudy 51 10.6 48 8.9 89 89 SSW 3 6 30.25 1024 10 16.0934 0 0
7:52 am 07:52 Partly Cloudy 52 11.1 48 8.9 86 86 WSW 3 6 30.27 1025 10 16.0934 0 0
8:52 am 08:52 Partly Cloudy 54 12.2 50 10 87 87 S 6 9 30.27 1025 10 16.0934 0 0
9:52 am 09:52 Mostly Cloudy 56 13.3 51 10.6 84 84 S 7 11 30.28 1025 10 16.0934 0 0
10:52 am 10:52 Mostly Cloudy 60 15.6 51 10.6 72 72 SSE 8 13 30.27 1025 10 16.0934 0 0
11:52 am 11:52 Mostly Cloudy 65 18.3 52 11.1 63 63 S 9 15 30.24 1024 10 16.0934 0 0
12:52 pm 12:52 Cloudy 70 21.1 52 11.1 53 53 S 7 11 30.22 1024 10 16.0934 0 0
1:52 pm 13:52 Cloudy 73 22.8 54 12.2 51 51 S 7 11 30.2 1023 10 16.0934 0 0
2:52 pm 14:52 Cloudy 75 23.9 54 12.2 48 48 S 8 13 30.17 1022 10 16.0934 0 0
3:52 pm 15:52 Cloudy 75 23.9 53 11.7 46 46 S 8 13 30.15 1021 10 16.0934 0 0
4:52 pm 16:52 Mostly Cloudy 74 23.3 52 11.1 46 46 S 7 11 30.14 1021 10 16.0934 0 0
5:52 pm 17:52 Cloudy 74 23.3 50 10 43 43 SSW 7 11 30.14 1021 10 16.0934 0 0
6:10 pm 18:10 Mostly Cloudy 70 21 54 12 57 57 SSW 6 9 30.15 1021 10 16.0934 0 0
6:52 pm 18:52 Mostly Cloudy 68 20 54 12.2 61 61 S 8 13 30.14 1021 10 16.0934 0 0
7:52 pm 19:52 Mostly Cloudy 67 19.4 53 11.7 61 61 S 7 11 30.15 1021 10 16.0934 0 0
8:52 pm 20:52 Mostly Cloudy 63 17.2 54 12.2 73 73 S 7 11 30.15 1021 10 16.0934 0 0
9:52 pm 21:52 Mostly Cloudy 63 17.2 54 12.2 73 73 S 7 11 30.15 1021 10 16.0934 0 0
10:52 pm 22:52 Cloudy 62 16.7 54 12.2 75 75 S 7 11 30.15 1021 10 16.0934 0 0
11:52 pm 23:52 Mostly Cloudy 61 16.1 54 12.2 78 78 S 6 9 30.15 1021 10 16.0934 0 0

Powered by AerisWeather